Weather History for Paynesville, MN

Change the Weather History Date:

Tuesday, March 26, 2013

  Actual Average (KLJF) Record (KLJF)
Temperature  
Mean Temperature 19 °F -  
Max Temperature 31 °F 45 °F 78 °F (2007)
Min Temperature 7 °F 24 °F -9 °F (1965)
Degree Days  
Heating Degree Days 46    
Moisture  
Dew Point 14 °F    
Average Humidity 78    
Maximum Humidity 91    
Minimum Humidity 58    
Precipitation  
Precipitation 0.00 in - - ()
Sea Level Pressure  
Sea Level Pressure 30.28 in    
Wind  
Wind Speed 4 mph (WNW)    
Max Wind Speed 10 mph    
Max Gust Speed -    
Visibility 10 miles    
Events      
Averages and records for this station are not official NWS values.
T = Trace of Precipitation, MM = Missing Value Source: NWS Daily Summary

Daily Weather History Graph

Daily Weather History Graph

Search for Another Location

Airport:

Trip Planner

Search our weather history database for the weather conditions in past years. The results will help you decide how hot, cold, wet, or windy it might be!

Date:

Astronomy

Mar. 26, 2013 Rise Set
Actual Time 7:10 AM CDT 7:39 PM CDT
Civil Twilight 6:40 AM CDT 8:09 PM CDT
Nautical Twilight 6:05 AM CDT 8:44 PM CDT
Astronomical Twilight 5:29 AM CDT 9:20 PM CDT
Moon 7:18 PM CDT (3/26) 6:28 AM CDT (3/26)
Length of Visible Light 13h 28m
Length of Day
12h 29m
Waxing Gibbous, 99% of the Moon is Illuminated
Mar 26
Waxing Gibbous
Mar 27
Full
Apr 2
Last Quarter
Apr 10
New
Apr 18
First Quarter

Hourly Weather History & Observations

Time (CDT) Temp. Windchill Dew Point Humidity Pressure Visibility Wind Dir Wind Speed Gust Speed Precip Events Conditions
12:13 AM 19.0 °F 10.0 °F 14.7 °F 83% 30.26 in 10.0 mi West 6.9 mph - N/A   Clear
12:33 AM 18.3 °F 10.2 °F 14.2 °F 84% 30.26 in 10.0 mi West 5.8 mph - N/A   Clear
12:53 AM 18.1 °F 10.0 °F 14.0 °F 84% 30.26 in 10.0 mi West 5.8 mph - N/A   Clear
1:13 AM 17.4 °F 8.0 °F 13.3 °F 84% 30.26 in 10.0 mi WNW 6.9 mph - N/A   Clear
1:33 AM 17.4 °F 5.4 °F 13.5 °F 84% 30.26 in 10.0 mi WNW 10.4 mph - N/A   Clear
1:53 AM 17.2 °F 6.0 °F 13.1 °F 84% 30.26 in 10.0 mi WNW 9.2 mph - N/A   Clear
2:13 AM 16.7 °F 6.2 °F 12.7 °F 84% 30.26 in 10.0 mi NW 8.1 mph - N/A   Mostly Cloudy
2:33 AM 16.7 °F 9.6 °F 12.4 °F 83% 30.26 in 10.0 mi NW 4.6 mph - N/A   Mostly Cloudy
2:53 AM 16.3 °F - 12.2 °F 84% 30.26 in 10.0 mi Calm Calm - N/A   Scattered Clouds
3:13 AM 15.4 °F 9.8 °F 11.7 °F 85% 30.26 in 10.0 mi WNW 3.5 mph - N/A   Scattered Clouds
3:33 AM 15.3 °F 3.5 °F 11.5 °F 85% 30.26 in 10.0 mi WNW 9.2 mph - N/A   Scattered Clouds
3:53 AM 15.1 °F 7.7 °F 11.3 °F 85% 30.26 in 10.0 mi WNW 4.6 mph - N/A   Scattered Clouds
4:13 AM 15.4 °F 6.8 °F 11.3 °F 84% 30.26 in 10.0 mi NW 5.8 mph - N/A   Clear
4:33 AM 14.9 °F 9.2 °F 10.8 °F 84% 30.26 in 10.0 mi WNW 3.5 mph - N/A   Clear
4:53 AM 14.5 °F 8.8 °F 10.8 °F 85% 30.26 in 10.0 mi WNW 3.5 mph - N/A   Clear
5:13 AM 12.9 °F 6.9 °F 8.8 °F 84% 30.26 in 10.0 mi West 3.5 mph - N/A   Clear
5:33 AM 13.1 °F 5.4 °F 9.5 °F 86% 30.26 in 10.0 mi WNW 4.6 mph - N/A   Clear
5:52 AM 11.3 °F - 7.7 °F 85% 30.26 in 10.0 mi Calm Calm - N/A   Clear
6:13 AM 12.2 °F - 9.0 °F 87% 30.27 in 10.0 mi Calm Calm - N/A   Clear
6:33 AM 11.3 °F - 8.4 °F 88% 30.27 in 10.0 mi Calm Calm - N/A   Clear
6:52 AM 9.7 °F 3.2 °F 6.6 °F 87% 30.28 in 10.0 mi West 3.5 mph - N/A   Clear
7:13 AM 8.4 °F 1.8 °F 5.9 °F 89% 30.28 in 10.0 mi West 3.5 mph - N/A   Clear
7:33 AM 7.5 °F -3.9 °F 5.0 °F 89% 30.28 in 10.0 mi West 6.9 mph - N/A   Clear
7:53 AM 7.9 °F 1.2 °F 5.7 °F 91% 30.28 in 10.0 mi WSW 3.5 mph - N/A   Clear
8:13 AM 8.6 °F -2.6 °F 5.9 °F 89% 30.29 in 10.0 mi WSW 6.9 mph - N/A   Clear
8:33 AM 9.5 °F -0.3 °F 6.3 °F 87% 30.30 in 10.0 mi West 5.8 mph - N/A   Clear
8:53 AM 11.3 °F - 7.3 °F 84% 30.29 in 10.0 mi Calm Calm - N/A   Clear
9:13 AM 13.1 °F 5.4 °F 8.8 °F 83% 30.29 in 10.0 mi West 4.6 mph - N/A   Clear
9:33 AM 14.5 °F 4.6 °F 10.0 °F 82% 30.30 in 10.0 mi West 6.9 mph - N/A   Clear
9:53 AM 16.2 °F 7.6 °F 11.1 °F 81% 30.30 in 10.0 mi WNW 5.8 mph - N/A   Clear
10:13 AM 17.8 °F 9.6 °F 12.0 °F 78% 30.30 in 10.0 mi WNW 5.8 mph - N/A   Clear
10:33 AM 18.5 °F 11.7 °F 12.6 °F 78% 30.30 in 10.0 mi WNW 4.6 mph - N/A   Clear
10:53 AM 19.4 °F 12.8 °F 13.1 °F 76% 30.30 in 10.0 mi WNW 4.6 mph - N/A   Clear
11:13 AM 20.3 °F 12.5 °F 14.0 °F 77% 30.30 in 10.0 mi WNW 5.8 mph - N/A   Clear
11:33 AM 21.9 °F 15.7 °F 15.3 °F 76% 30.30 in 10.0 mi WNW 4.6 mph - N/A   Clear
11:53 AM 23.0 °F 17.0 °F 15.6 °F 73% 30.30 in 10.0 mi NW 4.6 mph - N/A   Clear
12:13 PM 24.4 °F 20.1 °F 17.1 °F 73% 30.30 in 10.0 mi NW 3.5 mph - N/A   Clear
12:33 PM 25.7 °F - 17.8 °F 72% 30.30 in 10.0 mi Calm Calm - N/A   Clear
12:53 PM 26.6 °F 20.0 °F 18.7 °F 72% 30.30 in 10.0 mi West 5.8 mph - N/A   Clear
1:13 PM 27.5 °F 23.6 °F 18.5 °F 69% 30.30 in 10.0 mi West 3.5 mph - N/A   Clear
1:33 PM 28.4 °F 24.6 °F 18.9 °F 67% 30.29 in 10.0 mi West 3.5 mph - N/A   Clear
1:53 PM 28.8 °F 25.0 °F 19.8 °F 69% 30.29 in 10.0 mi WNW 3.5 mph - N/A   Clear
2:13 PM 29.1 °F 24.1 °F 19.6 °F 68% 30.29 in 10.0 mi WNW 4.6 mph - N/A   Clear
2:33 PM 29.8 °F 24.9 °F 19.8 °F 66% 30.29 in 10.0 mi West 4.6 mph - N/A   Clear
2:53 PM 30.2 °F 25.4 °F 20.5 °F 67% 30.29 in 10.0 mi WNW 4.6 mph - N/A   Clear
3:13 PM 30.4 °F 25.6 °F 20.3 °F 66% 30.29 in 10.0 mi NW 4.6 mph - N/A   Clear
3:33 PM 31.1 °F 27.7 °F 19.9 °F 63% 30.28 in 10.0 mi NW 3.5 mph - N/A   Clear
3:53 PM 31.8 °F 27.3 °F 18.7 °F 58% 30.28 in 10.0 mi WNW 4.6 mph - N/A   Clear
4:13 PM 31.5 °F 25.8 °F 19.4 °F 61% 30.27 in 10.0 mi NNW 5.8 mph - N/A   Clear
4:33 PM 31.8 °F 28.5 °F 19.4 °F 60% 30.26 in 10.0 mi WNW 3.5 mph - N/A   Clear
4:53 PM 31.6 °F 27.0 °F 19.9 °F 62% 30.26 in 10.0 mi NNW 4.6 mph - N/A   Clear
5:13 PM 31.6 °F 28.3 °F 20.3 °F 63% 30.26 in 10.0 mi NNW 3.5 mph - N/A   Clear
5:33 PM 31.8 °F - 20.5 °F 63% 30.26 in 10.0 mi Calm Calm - N/A   Clear
5:53 PM 31.6 °F - 20.3 °F 63% 30.26 in 10.0 mi Calm Calm - N/A   Clear
6:13 PM 31.6 °F - 18.7 °F 59% 30.26 in 10.0 mi Calm Calm - N/A   Clear
6:33 PM 30.9 °F - 18.9 °F 61% 30.26 in 10.0 mi Calm Calm - N/A   Clear
6:53 PM 30.7 °F - 18.3 °F 60% 30.26 in 10.0 mi Calm Calm - N/A   Clear
7:13 PM 29.8 °F - 17.8 °F 61% 30.26 in 10.0 mi Calm Calm - N/A   Clear
7:33 PM 27.7 °F - 18.1 °F 67% 30.26 in 10.0 mi Calm Calm - N/A   Clear
7:53 PM 27.3 °F - 18.1 °F 68% 30.26 in 10.0 mi Calm Calm - N/A   Clear
8:13 PM 26.4 °F - 17.8 °F 70% 30.26 in 10.0 mi Calm Calm - N/A   Clear
8:32 PM 22.8 °F - 16.7 °F 77% 30.26 in 10.0 mi Calm Calm - N/A   Clear
8:53 PM 21.4 °F - 17.1 °F 83% 30.27 in 10.0 mi Calm Calm - N/A   Clear
9:13 PM 22.1 °F - 17.6 °F 83% 30.28 in 10.0 mi Calm Calm - N/A   Clear
9:33 PM 21.6 °F - 17.4 °F 84% 30.27 in 10.0 mi Calm Calm - N/A   Clear
9:53 PM 18.0 °F - 14.4 °F 86% 30.28 in 10.0 mi Calm Calm - N/A   Clear
10:13 PM 17.6 °F - 14.7 °F 88% 30.28 in 10.0 mi Calm Calm - N/A   Clear
10:33 PM 17.4 °F - 14.5 °F 88% 30.28 in 10.0 mi Calm Calm - N/A   Clear
10:53 PM 15.8 °F - 12.9 °F 88% 30.29 in 10.0 mi Calm Calm - N/A   Clear
11:13 PM 14.0 °F - 11.3 °F 89% 30.29 in 10.0 mi Calm Calm - N/A   Clear
11:33 PM 12.9 °F - 10.0 °F 88% 30.29 in 10.0 mi Calm Calm - N/A   Clear
11:53 PM 13.1 °F - 10.6 °F 90% 30.29 in 10.0 mi Calm Calm - N/A   Clear